Regional Weather Roundup
Issued by NWS

Home | Current Version | Previous Version | Text Only | Print | Product List | Glossary Off
Versions: 1 2 3 4 5 6 7 8 9 10 11 12 13 14 15 16 17 18 19 20 21 22 23 24 25 26 27 28 29 30 31 32 33 34 35 36 37 38 39 40 41 42 43 44 45 46 47 48 49 50

000
ASUS43 KOAX 270210
RWRNE

WEATHER ROUNDUP FOR NEBRASKA
NATIONAL WEATHER SERVICE OMAHA NE
800 PM CST FRI DEC 26 2014

NOTES: SATELLITE DATA IS BEING USED TO AUGMENT CLOUD COVER ABOVE
       12000 FEET.
       "FAIR" INDICATES FEW OR NO CLOUDS BELOW 12,000 FEET WITH NO
       SIGNIFICANT WEATHER AND/OR OBSTRUCTIONS TO VISIBILITY.

  * THESE STATIONS DO NOT REPORT WEATHER SUCH AS RAIN...SNOW OR FOG.

NEZ001>004-019>022-054>056-270300-
NEBRASKA PANHANDLE

CITY           SKY/WX    TMP DP  RH WIND       PRES   REMARKS
SCOTTSBLUFF    CLOUDY    17  15  92 NW6       30.08R FOG     WCI   9
ALLIANCE       CLOUDY    17  14  88 N7        30.06S WCI   8
CHADRON        CLOUDY    19  14  81 CALM      30.12R
KIMBALL        LGT SNOW  15  13  90 NW5       30.01R WCI   8
SIDNEY         LGT SNOW  16  13  88 NW5       30.05R FOG     WCI   9
$$

NEZ057>060-069>072-079>082-270300-
SOUTHWEST NEBRASKA

CITY           SKY/WX    TMP DP  RH WIND       PRES   REMARKS
NORTH PLATTE   LGT SNOW  20  15  81 N9        30.09R WCI   9
IMPERIAL       LGT SNOW  20  15  81 N13       30.09R WCI   7
LEXINGTON      CLOUDY    23  19  86 N10       30.07R WCI  12
MCCOOK         LGT SNOW  23  20  88 NE9       30.10R VSB 1   WCI  13
OGALLALA       LGT SNOW  20  17  91 N9        30.09R WCI   9
$$

NEZ005>010-023>029-035>040-094-270300-
NORTH CENTRAL NEBRASKA

CITY           SKY/WX    TMP DP  RH WIND       PRES   REMARKS
VALENTINE      LGT SNOW  19  15  84 N12       30.11S FOG     WCI   7
AINSWORTH      LGT SNOW  19  17  92 N12       30.09S WCI   6
BROKEN BOW     LGT SNOW  21  17  84 N13       30.06R FOG     WCI   9
O`NEILL        LGT SNOW  21  20  96 N15       30.09R WCI   8
ORD            LGT SNOW  21  18  88 N10       30.06F FOG     WCI  10
THEDFORD       LGT SNOW  20  18  90 N9G16     30.08R WCI  10
$$

NEZ041-046>049-061>064-073>077-083>087-270300-
SOUTH CENTRAL NEBRASKA

CITY           SKY/WX    TMP DP  RH WIND       PRES   REMARKS
GRAND ISLAND   LGT SNOW  22  20  92 N12       30.06R FOG     WCI  10
AURORA         MIX PCPN  25  23  93 N12       30.05R WCI  14
HASTINGS       LGT SNOW  24  20  84 N13       30.05R FOG     WCI  12
HEBRON         MIX PCPN  29  27  92 N9        30.04R WCI  21
HOLDREGE       LGT SNOW  23  20  89 N13       30.06R WCI  11
KEARNEY *      CLOUDY    21  18  86 NW14      30.06R WCI   8
YORK           LGT SNOW  27  25  93 N8        30.03S WCI  18
$$

NEZ011>018-030>034-042>045-270300-
NORTHEAST NEBRASKA

CITY           SKY/WX    TMP DP  RH WIND       PRES   REMARKS
NORFOLK        LGT SNOW  25  22  88 N16       30.04S FOG     WCI  12
ALBION         LGT SNOW  24  19  84 N14G20    30.05F WCI  11
BLAIR          CLOUDY    32  30  92 N8        29.99R FOG     WCI  25
COLUMBUS *     MOCLDY    27  19  74 N15       30.04S WCI  15
FREMONT        LGT SNOW  31  30  94 N5        30.03R WCI  27
TEKAMAH        LGT SNOW  32  28  85 N17       30.02F FOG     WCI  21
WAYNE          LGT SNOW  26  24  92 N12       30.05S WCI  16
$$

NEZ050>053-065>068-078-088>093-270300-
SOUTHEAST NEBRASKA

CITY           SKY/WX    TMP DP  RH WIND       PRES   REMARKS
LINCOLN        CLOUDY    31  29  92 N12       30.01R FOG     WCI  22
OMAHA EPPLEY   FRZ DRZL  32  31  96 N9        30.01F FOG     WCI  24
BEATRICE       CLOUDY    31  30  97 N8        30.02R FOG     WCI  23
FALLS CITY     CLOUDY    34  32  92 N8        29.97F FOG     WCI  27
NEBRASKA CITY  CLOUDY    32  32 100 N9        29.99S FOG     WCI  24
PLATTSMOUTH    CLOUDY    32  31  94 N6        29.99R FOG     WCI  26
$$

NEZ044-045-051>053-067-270300-
OMAHA AREA

CITY           SKY/WX    TMP DP  RH WIND       PRES   REMARKS
OMAHA EPPLEY   FRZ DRZL  32  31  96 N9        30.01F FOG     WCI  24
BLAIR          CLOUDY    32  30  92 N8        29.99R FOG     WCI  25
FREMONT        LGT SNOW  31  30  94 N5        30.03R WCI  27
MILLARD        DRIZZLE   32  31  94 N3        30.02R
OFFUTT AFB     FRZ RAIN  32  32 100 N5        30.00R WCI  27
PLATTSMOUTH    CLOUDY    32  31  94 N6        29.99R FOG     WCI  26
WAHOO          CLOUDY    31  28  88 N14       30.02R WCI  21
$$


USA.gov is the U.S. government's official web portal to all federal, state and local government web resources and services.